Location: Ipswich
(52.0579°N, 1.1528°E)
Time: 21:56:34
(UTC+01:00)

ISS - Pass Details

Date: 10 May 2026
Orbit: 414 x 424 km, 51.6° (Epoch: 15 May)

Event Time Altitude Azimuth Distance (km) Brightness Sun altitude
Rises 21:28:05 0° 224° (SW) 2,342 0.1 -7.4°
Reaches altitude 10° 21:30:19 10° 213° (SSW) 1,483 -1.1 -7.6°
Maximum altitude 21:33:15 29° 151° (SSE) 786 -2.9 -7.9°
Drops below altitude 10° 21:36:12 10° 89° (E) 1,492 -1.4 -8.3°
Sets 21:38:27 0° 78° (ENE) 2,359 -0.3 -8.5°
